#timestamp,LO_Frequency,Hit 
1501592415.4,286047005.0,N
1501592435.3,286047009.2,N
1501592455.1,286047011.1,N
1501592475.9,286047016.9,N
1501592495.7,286047023.1,P
1501592515.5,286047026.3,N
1501592535.4,286047022.4,N
1501592555.2,286047022.6,N
1501592575.1,286047017.2,N
1501592576.0,286047017.2,N
1501592595.8,286047017.3,N
1501592615.6,286047014.4,N
1501592635.5,286047011.2,N
1501592655.3,286047011.6,N
1501592675.1,286047011.1,N
1501592695.9,286047005.1,N
1501592715.7,286047004.0,N
1501592735.6,286046999.8,N
1501592755.4,286046998.7,N
1501592775.2,286047001.8,N
1501592795.1,286047002.5,N
1501592796.0,286047002.5,N
1501592815.8,286046996.9,N
1501592835.6,286046999.4,N
1501592855.5,286046999.1,N
1501592875.3,286046995.0,N
1501592895.2,286046999.3,N
1501592915.9,286047002.6,N
1501592935.7,286047000.9,N
1501592955.6,286047000.8,N
1501592975.4,286046998.6,N
1501592995.2,286047016.5,N
1501593015.1,286047008.1,N
1501593016.0,286047008.1,N
1501593035.8,286047005.3,N
1501593055.7,286047005.1,N
1501593075.5,286047014.8,N
1501593095.3,286047020.8,N
1501593115.2,286047022.7,P
1501593135.0,286047020.4,N
1501593135.9,286047020.4,N
1501593155.8,286047025.1,P
1501593175.6,286046999.1,N
1501593195.4,286047002.8,N
1501593215.3,286046999.5,N
1501593235.1,286047003.6,N
1501593255.9,286046994.8,N
1501593275.7,286046977.9,N
1501593295.5,286046963.9,N
1501593315.4,286046957.2,N
1501593335.2,286046953.9,N
1501593355.0,286046941.4,N
1501593355.9,286046941.4,N
1501593375.8,286046934.1,N
1501593395.6,286046934.1,N
1501593415.5,286046943.0,N
1501593435.3,286046936.6,N
1501593455.1,286046929.5,N
1501593475.9,286046927.6,N
1501593495.7,286046915.1,N
1501593515.5,286046921.6,N
1501593535.4,286046922.7,N
1501593555.2,286046923.1,N
1501593575.1,286046923.2,N
1501593576.0,286046923.2,N
1501593595.8,286046927.4,N
1501593615.6,286046917.4,N
1501593635.5,286046910.8,N
1501593655.3,286046915.3,N
1501593675.1,286046908.3,N
1501593695.9,286046898.0,N
1501593715.7,286046897.6,P
1501593735.6,286046948.7,N
1501593755.4,286046951.1,N
1501593775.2,286046954.6,N
1501593795.1,286046955.9,N
1501593796.0,286046955.9,N
1501593815.8,286046959.6,N
1501593835.7,286046960.0,N
1501593855.5,286046975.4,N
1501593875.3,286046979.2,N
1501593895.2,286046973.1,N
1501593915.0,286046965.8,N
1501593915.9,286046965.8,N
1501593935.8,286046967.7,N
1501593955.6,286046965.8,N
1501593975.4,286046966.0,N
1501593995.3,286046947.1,P
1501594015.1,286046992.0,N
1501594035.8,286047006.7,N
1501594055.5,286047004.6,N
1501594075.4,286047022.1,N
1501594095.2,286047010.0,N
1501594115.0,286047003.6,N
1501594116.0,286047003.6,N
1501594135.8,286047007.6,N
1501594155.6,286046988.4,N
1501594175.5,286046976.1,N
1501594195.3,286046975.5,N
1501594215.1,286046967.8,N
1501594235.9,286046971.9,N
1501594255.7,286046981.6,N
1501594275.6,286046976.9,N
1501594295.4,286046988.5,N
1501594315.2,286046987.9,N
1501594335.1,286046974.5,N
1501594336.0,286046974.5,N
1501594355.8,286046973.8,N
1501594375.6,286046965.1,N
1501594395.5,286046979.5,N
1501594415.3,286046967.8,N
1501594435.2,286046968.7,N
1501594455.9,286046960.1,N
1501594475.7,286046961.6,N
1501594495.6,286046963.2,N
1501594515.4,286046964.1,N
1501594535.2,286046957.9,N
1501594555.1,286046951.8,N
1501594556.0,286046951.8,N
1501594575.8,286046952.8,N
1501594595.7,286046957.4,N
1501594615.5,286046957.1,N
1501594635.3,286046959.3,N
1501594655.2,286046961.4,N
1501594675.0,286046964.4,N
1501594675.9,286046964.4,N
1501594695.8,286046972.7,N
1501594715.6,286046975.8,N
1501594735.4,286046982.2,N
1501594755.3,286046976.8,N
1501594775.1,286046961.4,P
1501594795.9,286046987.2,P
1501594815.7,286046986.2,N
1501594835.5,286046984.8,N
1501594855.4,286046990.1,N
1501594875.2,286046988.1,N
1501594895.0,286046979.5,N
1501594895.9,286046979.5,N
1501594915.8,286046982.2,N
1501594935.6,286046976.1,N
1501594955.5,286046991.4,N
1501594975.3,286046987.3,N
1501594995.1,286046985.3,N
1501595015.9,286046986.2,N
1501595035.7,286046985.9,N
1501595055.5,286046982.0,N
1501595075.4,286046975.3,P
1501595095.2,286046982.7,P
1501595115.1,286046988.5,P
1501595116.0,286046988.5,N
1501595135.8,286047038.2,P
1501595155.6,286047045.6,N
1501595175.5,286047025.4,N
1501595195.3,286047026.0,N
1501595215.2,286047043.3,N
1501595235.9,286047039.9,N
1501595255.7,286047030.8,N
1501595275.6,286047039.4,N
1501595295.4,286047040.5,N
1501595315.3,286047045.2,N
1501595335.1,286047030.1,N
1501595336.0,286047030.1,N
1501595355.8,286047018.1,N
1501595375.7,286047016.8,N
1501595395.5,286047014.3,N
1501595415.3,286047021.8,N
1501595435.2,286047015.7,N
1501595455.0,286047014.4,N
1501595455.9,286047014.4,N
1501595475.8,286047021.4,N
1501595495.6,286047010.6,N
1501595515.4,286047006.7,N
1501595535.3,286047006.4,N
1501595555.1,286047010.7,N
1501595575.9,286047009.0,N
1501595595.7,286047007.5,N
1501595615.5,286047003.3,N
1501595635.4,286047005.6,N
1501595655.2,286047006.0,N
1501595675.0,286047005.3,N
1501595675.9,286047005.3,N
1501595695.8,286047004.3,N
1501595715.6,286046999.6,N
1501595735.5,286046992.3,N
1501595755.3,286046987.0,N
1501595775.1,286046984.2,N
1501595795.9,286046980.5,N
1501595815.7,286046986.0,N
1501595835.5,286046984.2,N
1501595855.4,286046985.2,N
1501595875.2,286046980.8,N
1501595895.1,286046984.1,N
1501595896.0,286046984.1,N
1501595915.8,286046992.6,N
1501595935.6,286047000.9,N
1501595955.5,286046999.4,N
1501595975.3,286046999.6,N
1501595995.2,286047001.5,N
